Location: Palomar Mountain Lodge
(33.3110°N, 116.8495°W)
Time: 18:49:31
(UTC-07:00)

USA 245 - Pass Details

Date: 14 June 2018
Orbit: 264 x 1006 km, 97.9° (Epoch: 11 June)

Event Time Altitude Azimuth Distance (km) Brightness Sun altitude
Exits shadow 21:46:11 34° 137° (SE) 1,358 4.7 -18.8°
Maximum altitude 21:48:29 59° 73° (ENE) 1,009 4.4 -19.1°
Drops below altitude 10° 21:54:31 10° 356° (N) 2,706 7.5 -19.9°
Sets 21:57:10 0° 353° (N) 3,702 8.4 -20.3°
